Change the Weather History Date:

Wednesday, February 26, 2014

  Actual Average (KMHR) Record (KMHR)
Temperature  
Mean Temperature 60 °F -  
Max Temperature 64 °F 57 °F 71 °F (2015)
Min Temperature 55 °F 38 °F 26 °F (2011)
Degree Days  
Heating Degree Days 6    
Growing Degree Days 10 (Base 50)    
Moisture  
Dew Point 50 °F    
Average Humidity 77    
Maximum Humidity 94    
Minimum Humidity 55    
Precipitation  
Precipitation 0.00 in - - ()
Sea Level Pressure  
Sea Level Pressure 29.81 in    
Wind  
Wind Speed 15 mph (SE)    
Max Wind Speed 30 mph    
Max Gust Speed 40 mph    
Visibility 7 miles    
Events Rain    
Averages and records for this station are not official NWS values.
T = Trace of Precipitation, MM = Missing Value Source: NWS Daily Summary

Daily Weather History Graph

Daily Weather History Graph

Search for Another Location

Airport or City:

Trip Planner

Search our weather history database for the weather conditions in past years. The results will help you decide how hot, cold, wet, or windy it might be!

Date:

Astronomy

Feb. 26, 2014 Rise Set
Actual Time 6:41 AM PST 5:55 PM PST
Civil Twilight 6:15 AM PST 6:22 PM PST
Nautical Twilight 5:44 AM PST 6:53 PM PST
Astronomical Twilight 5:13 AM PST 7:23 PM PST
Moon 4:30 AM PST (2/26) 3:17 PM PST (2/26)
Length of Visible Light 12h 07m
Length of Day
11h 13m
Waning Crescent, 9% of the Moon is Illuminated
Feb 26
Waning Crescent
Mar 1
New
Mar 8
First Quarter
Mar 16
Full
Mar 23
Last Quarter

Hourly Weather History & Observations

Time (PST) Temp. Dew Point Humidity Pressure Visibility Wind Dir Wind Speed Gust Speed Precip Events Conditions
10:55 AM 55.4 °F 50.0 °F 82% 29.98 in 5.0 mi East 4.6 mph - N/A   Mostly Cloudy
11:15 AM 55.4 °F 50.0 °F 82% 29.97 in 6.0 mi East 8.1 mph - N/A   Haze
11:35 AM 55.4 °F 50.0 °F 82% 29.96 in 6.0 mi East 10.4 mph - N/A   Haze
11:55 AM 55.4 °F 50.0 °F 82% 29.96 in 8.0 mi ESE 9.2 mph - N/A   Mostly Cloudy
12:15 PM 57.2 °F 50.0 °F 77% 29.95 in 8.0 mi ESE 9.2 mph - N/A   Mostly Cloudy
12:35 PM 57.2 °F 50.0 °F 77% 29.92 in 10.0 mi East 11.5 mph - N/A   Mostly Cloudy
12:55 PM 59.0 °F 51.8 °F 77% 29.90 in 10.0 mi East 12.7 mph - N/A   Clear
1:15 PM 62.6 °F 50.0 °F 63% 29.89 in 10.0 mi SE 12.7 mph 19.6 mph N/A   Clear
1:35 PM 62.6 °F 48.2 °F 59% 29.88 in 10.0 mi SE 17.3 mph 28.8 mph N/A   Scattered Clouds
1:55 PM 62.6 °F 48.2 °F 59% 29.86 in 10.0 mi SSE 15.0 mph 24.2 mph N/A   Mostly Cloudy
2:15 PM 64.4 °F 48.2 °F 56% 29.85 in 10.0 mi SSE 15.0 mph 19.6 mph N/A   Scattered Clouds
2:35 PM 64.4 °F 48.2 °F 56% 29.84 in 10.0 mi SSE 16.1 mph 25.3 mph N/A   Scattered Clouds
2:55 PM 62.6 °F 48.2 °F 59% 29.83 in 10.0 mi SSE 18.4 mph - N/A   Partly Cloudy
3:15 PM 62.6 °F 46.4 °F 55% 29.83 in 10.0 mi SSE 19.6 mph 27.6 mph N/A   Mostly Cloudy
3:35 PM 62.6 °F 48.2 °F 59% 29.82 in 10.0 mi SSE 15.0 mph 20.7 mph N/A   Mostly Cloudy
3:55 PM 62.6 °F 46.4 °F 55% 29.80 in 10.0 mi SSE 19.6 mph 26.5 mph N/A   Overcast
4:15 PM 62.6 °F 46.4 °F 55% 29.80 in 8.0 mi SSE 16.1 mph 25.3 mph N/A Rain Light Rain
4:35 PM 59.0 °F 50.0 °F 72% 29.81 in 2.5 mi SSE 20.7 mph 26.5 mph N/A Rain Light Rain
4:55 PM 59.0 °F 50.0 °F 72% 29.79 in 5.0 mi SSE 21.9 mph 27.6 mph N/A Rain Light Rain
5:15 PM 59.0 °F 50.0 °F 72% 29.80 in 8.0 mi SSE 20.7 mph 27.6 mph N/A Rain Light Rain
5:35 PM 57.2 °F 50.0 °F 77% 29.79 in 3.0 mi SSE 21.9 mph 29.9 mph N/A Rain Light Rain
5:55 PM 55.4 °F 51.8 °F 88% 29.75 in 3.0 mi ESE 24.2 mph 29.9 mph N/A Rain Light Rain
6:15 PM 55.4 °F 51.8 °F 88% 29.76 in 8.0 mi SE 24.2 mph 33.4 mph N/A Rain Light Rain
6:35 PM 57.2 °F 50.0 °F 77% 29.77 in 10.0 mi SE 20.7 mph 29.9 mph N/A   Overcast
6:55 PM 57.2 °F 50.0 °F 77% 29.76 in 10.0 mi SE 24.2 mph 31.1 mph N/A   Overcast
7:15 PM 55.4 °F 50.0 °F 82% 29.77 in 5.0 mi SE 24.2 mph 33.4 mph N/A Rain Light Rain
7:35 PM 55.4 °F 50.0 °F 82% 29.72 in 3.0 mi ESE 29.9 mph 40.3 mph N/A Rain Light Rain
7:55 PM 55.4 °F 50.0 °F 82% 29.74 in 10.0 mi SE 25.3 mph 32.2 mph N/A   Unknown
8:15 PM 55.4 °F 50.0 °F 82% 29.73 in 4.0 mi SE 23.0 mph 26.5 mph N/A Rain Light Rain
8:35 PM 55.4 °F 51.8 °F 88% 29.75 in 2.5 mi SE 25.3 mph 33.4 mph N/A Rain Light Rain
8:55 PM 55.4 °F 50.0 °F 82% 29.75 in 1.5 mi SE 12.7 mph 26.5 mph N/A Rain Rain
9:15 PM 55.4 °F 51.8 °F 88% 29.72 in 10.0 mi SE 19.6 mph 27.6 mph N/A   Overcast
9:35 PM 55.4 °F 51.8 °F 88% 29.72 in 8.0 mi SE 17.3 mph 23.0 mph N/A   Mostly Cloudy
9:55 PM 55.4 °F 53.6 °F 94% 29.73 in 3.0 mi SE 23.0 mph 29.9 mph N/A Rain Light Rain
10:15 PM 55.4 °F 53.6 °F 94% 29.73 in 8.0 mi SSE 20.7 mph 26.5 mph N/A Rain Light Rain
10:35 PM 55.4 °F 53.6 °F 94% 29.74 in 2.0 mi South 17.3 mph 25.3 mph N/A Rain Light Rain
10:55 PM 55.4 °F 53.6 °F 94% 29.73 in 9.0 mi SSE 25.3 mph 31.1 mph N/A   Mostly Cloudy
11:15 PM 55.4 °F 53.6 °F 94% 29.73 in 10.0 mi SSE 20.7 mph 31.1 mph N/A   Mostly Cloudy
11:35 PM 55.4 °F 51.8 °F 88% 29.72 in 10.0 mi South 20.7 mph 27.6 mph N/A   Scattered Clouds
11:55 PM 55.4 °F 51.8 °F 88% 29.74 in 10.0 mi South 16.1 mph - N/A   Scattered Clouds